map of KUNO home
Great Circle Mapper logo
KUNO - Airport
Location
City:  West Plains, Missouri, United States
Name:West Plains Regional
ICAO:KUNO
FAA:UNO

Details
Type:Airport (Airfield)
Use:Public/Civil
Latitude:3652'42"N (36.878417)
Longitude:9154'10"W (-91.902666)
Datum:WGS 1984
Elevation:1228 ft (374 m)
Variation:0.10E (WMM2015 magnetic declination)
-0.10 annual change
Runways:1
Longest:5101 × 75 ft (1555 × 23 m), paved

Time
Time Zone:UTC-6 (DST-5)
Local Time:

Weather
METAR:KUNO 290553Z AUTO 00000KT 6SM BR CLR 25/23 A3005 RMK AO2 SLP158 T02500233 10317 20250 403390239 50013

Related Locations
Nearby:
Farthest:MGV: 10911 mi / 17559 km
Margaret River, WA, AU

Find:

   beyond  
but within

Other Information
Maps:
NOTAMs:
Links:
Sources:

  
flag of United States
flag of Missouri
  

Sectional Chart

Flight Planning
at skyvector.com

Satellite Image

Google Maps Satellite view

 

Copyright © 2004-2015 Karl L. Swartz. All rights reserved.
The Great Circle Mapper name and logo are trademarks of the Great Circle Mapper.
All other trademarks mentioned herein belong to their respective owners.
Please see credits for attibutions and further copyright information.

  Follow gcmap on Facebook Follow gcmap on Twitter Follow gcmap on Google+

hCard Microformat

Geo Microformat